SCP
0 -0 -0 0 0 0 -0 -0 0 0 0 0 0 0 0 0 0 0 0 0 0 0 0 0 0 0 0 0 0 0 0 0 0 0 0 0 0 0 0 0 0 0 0 0
0 0 0 0 0 -0 -0 -0 0 0 0 0 0 0 0 0 0 0 0 0 0 0 0 0 0 0 0 0 0 0 0 0 0 0 0 0 -0 0 0 0 0 0 0 0
0 0 0 0 0 0 -0 -0 0 0 0 0 0 0 0 0 0 0 0 0 0 0 0 0 0 0 0 0 0 0 0 0 0 0 0 0 0 0 0 0 0 0 0 0
0 0 0 0 0 0 -0 0 0 0 0 0 0 0 0 0 0 0 0 0 0 0 0 0 0 0 0 0 0 0 0 0 0 0 0 0 0 0 0 0 0 0 0 0
0 0 0 0 0 0 0 0 0 0 0 0 0 0 0 0 0 0 0 0 0 0 0 0 0 0 0 0 0 0 0 0 0 0 0 0 0 0 0 0 0 0 0 0
0 0 0 0 0 0 0 0 0 0 0 0 0 0 0 0 0 0 0 0 0 0 0 0 0 0 0 0 0 0 0 0 0 0 0 0 0 0 0 0 0 0 0 0
0 0 0 0 0 0 0 0 0 0 0 0 0 0 0 0 0 0 0 0 0 0 0 0 0 0 0 0 0 0 0 0 0 0 0 0 0 0 0 0 0 0 0 0
0 0 0 0 0 0 0 0 0 0 0 0 0 0 0 0 0 0 0 0 0 0 0 0 0 0 0 0 0 0 0 0 0 0 0 0 0 0 0 0 0 0 0 0
0 0 0 0 0 0 0 0 0 0 0 0 0 0 0 0 0 0 0 0 0 0 0 0 0 0 0 0 0 0 0 0 0 0 0 0 0 0 0 0 0 0 0 0
0 0 0 0 0 0 0 0 0 0 0 0 0 0 0 0 0 0 0 0 0 0 0 0 0 0 0 0 0 0 0 0 0 0 0 0 0 0 0 0 0 0 0 0
0 0 0 0 0 0 0 0 0 0 0 0 0 0 0 0 0 0 0 0 0 0 0 0 0 0 0 0 0 0 0 0 0 0 0 0 0 0 0 0 0 0 0 0
0 0 0 0 0 0 0 0 0 0 0 0 0 0 0 0 0 0 0 0 0 0 0 0 0 0 0 0 0 0 0 0 0 0 0 0 0 0 0 0 0 0 0 0
0 0 0 0 0 0 0 0 0 0 0 0 0 0 0 0 0 0 0 0 0 0 0 0 0 0 0 0 0 0 0 0 0 0 0 0 0 0 0 0 0 0 0 0
0 0 0 0 0 0 0 0 0 0 0 0 0 0 0 0 0 0 0 0 0 0 0 0 0 0 0 0 0 0 0 0 0 0 0 0 0 0 0 0 0 0 0 0
0 0 0 0 0 0 0 0 0 0 0 0 0 0 0 0 0 0 0 0 0 0 0 0 0 0 0 0 0 0 0 0 0 0 0 0 0 0 0 0 0 0 0 0
0 0 0 0 0 0 0 0 0 0 0 0 0 0 0 0 0 0 -0 0 0 0 0 0 0 0 0 0 0 0 0 0 0 0 0 0 0 0 0 0 0 0 0 0
0 0 0 0 0 0 0 0 0 0 0 0 0 0 0 0 0 0 0 0 0 -0 0 0 0 0 0 0 0 0 0 0 0 0 0 0 0 0 0 0 0 0 0 0
0 0 0 0 0 0 0 0 0 0 0 0 0 0 -0 -0 -0 0 0 0 0 0 0 0 0 0 0 0 0 0 0 0 0 0 0 0 0 0 0 0 0 0 0 0
0 0 0 0 0 0 -0 -0 0 -0 -0 -0 -0 0 0 0 0 0 0 0 0 0 0 0 0 0 0 0 0 0 0 0 0 0 0 0 0 0 0 0 0 -0 -0 -0
0 0 0 -0 -0 -0 -0 0 0 0 0 0 0 0 0 0 0 0 0 0 0 0 0 0 0 0 0 0 0 0 0 0 0 0 0 0 0 0 0 0 -0 -0 -0 0
0 0 -0 0 -0 -0 -0 0 0 0 0 0 0 0 0 0 0 0 0 0 0 0 0 0 0 0 0 0 0 0 0 0 -0 0 0 0 0 0 0 -0 -0 0 0 0
-0 0 0 -0 -0 0 0 0 0 0 0 0 0 0 0 0 0 0 0 0 0 0 0 0 0 0 0 0 -0 0 0 0 0 0 0 0 0 0 -0 -0 0 -0 0 0
0 0 0 0 0 0 0 0 0 0 0 -0 0 0 0 0 0 0 0 0 0 0 0 0 0 0 -0 0 -0 0 0 0 0 0 0 0 0 0 -0 -0 -0 -0 0 0
0 0 0 0 0 0 0 0 0 0 -0 0 0 0 0 0 0 0 0 0 0 0 0 0 0 0 -0 0 0 0 0 0 0 0 0 -0 0 0 0 0 -0 -0 0 0
0 0 0 0 0 0 0 0 0 0 0 0 0 0 0 0 0 0 0 0 0 0 0 0 0 0 0 0 0 0 0 0 0 0 -0 -0 -0 -0 0 0 -0 -0 0 0
0 0 0 0 0 0 0 0 0 0 0 0 0 0 0 0 0 0 0 0 0 0 0 0 0 0 0 0 0 0 0 0 0 0 -0 0 0 -0 -0 -0 -0 0 0 0
0 0 0 0 0 0 0 0 0 0 0 0 0 0 0 0 0 0 0 0 0 0 0 0 0 0 0 0 0 0 0 0 0 0 0 0 0 0 0 0 0 0 0 0
Wind_Speed_500mb
59 65 68 72 76 76 67 25 11 25 24 11 3 5 5 8 8 9 10 11 15 15 5 10 8 8 4 4 3 2 7 8 17 29 36 26 33 38 27 14 18 17 19 13
58 63 66 67 66 64 60 31 16 16 20 7 2 5 7 7 9 8 6 11 10 7 9 10 11 7 6 6 2 3 11 13 15 13 9 12 17 25 26 17 9 40 26 12
58 62 64 63 57 51 41 14 8 7 15 11 10 12 11 12 6 13 12 10 10 12 15 10 7 12 12 2 6 6 4 17 22 24 17 2 8 13 15 21 15 27 31 10
57 60 61 57 51 43 25 10 6 5 9 1 19 12 9 18 12 8 8 13 23 19 15 16 16 12 12 13 7 7 8 17 19 24 27 27 30 29 26 31 30 30 28 28
56 57 55 50 45 38 13 14 12 9 26 17 15 7 10 12 7 9 10 19 4 15 22 18 8 13 11 10 9 10 7 14 15 27 23 24 34 34 34 36 35 35 32 32
52 50 46 43 40 32 11 13 11 9 11 11 12 9 5 4 9 13 5 7 14 18 8 7 11 14 10 10 14 15 15 12 12 19 6 18 23 26 33 35 32 23 27 12
45 41 40 37 33 26 15 11 9 13 15 9 15 11 15 20 22 22 18 18 18 6 12 14 16 20 23 23 23 21 17 17 17 11 12 10 10 5 5 10 7 16 7 2
39 36 34 31 28 20 12 11 7 10 14 17 25 23 19 19 20 27 30 25 14 16 13 16 17 21 21 29 24 21 26 18 7 7 16 24 19 8 5 7 8 4 10 4
34 32 31 27 25 20 12 13 9 10 17 3 11 17 15 21 21 18 25 16 15 13 18 19 28 19 18 13 17 9 17 20 14 10 8 9 8 9 3 6 15 12 6 6
32 28 26 25 20 18 16 14 13 10 24 27 15 17 14 7 13 14 16 13 15 18 19 22 24 25 14 20 23 16 18 20 23 21 14 13 12 7 2 15 5 5 13 23
27 25 24 21 13 15 17 15 16 12 20 42 42 39 40 36 26 18 4 12 22 16 23 21 15 16 15 22 20 12 20 13 15 18 13 13 11 12 12 12 14 22 26 31
23 23 24 20 18 24 21 16 11 16 21 35 39 43 49 44 36 28 19 20 10 10 9 8 9 10 8 19 15 11 15 11 6 9 4 11 10 5 7 16 20 26 30 33
26 21 22 19 22 19 19 21 23 21 23 42 29 22 16 14 26 39 42 25 10 11 10 8 3 11 10 10 16 11 10 7 12 1 14 5 7 15 18 14 20 24 27 31
28 21 23 22 21 23 14 14 18 18 14 13 12 12 15 18 25 24 35 45 21 16 15 11 5 7 12 5 4 15 8 8 9 16 22 17 11 5 6 15 17 21 26 30
25 26 25 25 20 23 24 24 25 24 20 12 32 42 12 5 11 21 29 32 30 18 12 13 11 12 9 13 11 16 16 18 15 11 11 7 3 9 12 13 16 20 26 27
28 25 22 17 18 20 15 9 11 14 27 9 8 13 8 8 11 18 25 30 26 18 11 8 6 4 7 6 12 10 8 10 15 6 2 8 11 11 7 10 12 17 17 20
21 22 21 19 20 19 13 8 13 30 19 8 12 7 8 9 7 13 22 21 21 20 10 9 8 11 12 8 14 9 5 11 16 10 9 11 3 11 12 9 11 14 14 18
20 22 19 20 20 24 23 12 15 15 15 10 7 9 6 12 8 14 19 15 14 8 6 9 10 10 12 7 9 4 11 12 11 10 9 11 10 10 8 9 11 15 18 22
17 19 19 14 10 9 15 21 14 10 11 8 6 8 7 9 9 1 13 16 11 17 12 9 8 6 7 10 6 14 14 9 9 5 6 3 3 10 10 11 14 19 22 25
18 12 6 6 5 9 11 7 7 10 11 10 11 11 7 10 11 6 4 4 4 7 6 9 6 7 18 13 14 10 10 9 6 7 9 4 3 8 13 16 19 21 24 25
5 4 3 3 5 5 5 5 7 6 7 9 8 11 10 3 8 6 3 1 4 5 6 6 8 5 6 6 11 13 12 11 12 7 5 5 5 10 16 21 23 21 18 18
2 4 7 5 4 6 7 5 4 8 4 7 5 6 7 5 5 7 6 4 5 3 7 4 5 3 4 17 20 19 19 20 14 9 8 7 9 12 17 20 22 19 16 16
4 4 4 5 4 7 6 3 3 3 2 3 6 6 5 6 7 8 4 4 5 13 5 3 6 19 23 21 21 20 18 15 12 13 12 11 14 17 23 26 26 21 17 18
3 5 5 6 3 6 6 11 10 14 18 26 26 6 7 4 6 7 2 3 2 5 5 6 12 21 22 19 18 20 18 16 16 16 14 15 16 18 23 25 26 26 23 20
4 6 5 5 4 5 12 16 21 29 28 21 7 4 4 5 6 5 5 4 2 2 5 12 20 19 18 18 19 20 18 18 17 16 16 15 12 11 15 20 28 27 27 28
4 4 7 8 8 12 15 25 26 24 27 2 5 4 5 5 5 5 0 6 7 5 12 19 14 14 15 16 18 17 16 17 16 14 14 13 10 8 8 15 23 22 28 34
5 2 5 11 13 14 17 26 25 26 23 12 6 3 8 5 5 2 5 5 6 16 16 12 8 6 6 11 15 16 14 13 11 11 10 8 4 4 6 10 16 21 24 30
Wind_Direction_500mb
348 350 351 351 350 351 359 359 319 312 347 271 285 276 352 347 272 233 252 272 271 267 266 264 254 251 357 27 307 2 186 202 242 250 243 288 303 295 306 289 250 265 281 296
345 346 348 351 352 355 356 335 298 326 5 312 299 338 273 262 267 251 245 239 242 225 237 251 244 203 125 81 35 168 156 210 268 181 197 206 222 235 254 267 309 277 264 277
340 342 344 347 351 354 355 335 307 342 36 55 342 335 280 261 235 261 262 267 232 223 232 214 233 215 176 238 134 94 172 251 263 279 310 24 243 215 205 215 240 253 267 235
336 338 340 343 349 355 4 348 36 337 311 165 326 283 285 276 268 235 253 223 236 232 238 229 223 211 189 199 161 206 243 254 262 272 285 280 269 269 253 237 253 263 278 287
332 333 336 342 348 355 9 341 334 311 285 290 277 211 245 275 286 263 218 259 251 240 242 238 214 212 217 257 160 210 203 265 286 274 267 271 271 266 261 257 256 258 268 271
330 332 336 341 346 358 6 341 315 297 279 271 268 274 294 271 304 230 248 328 277 238 248 290 289 273 277 267 249 221 235 261 259 275 346 291 268 258 247 252 250 257 256 293
326 330 333 338 345 354 360 329 320 283 284 269 292 288 276 275 273 270 269 292 270 15 318 276 254 251 248 239 238 242 241 245 257 276 290 256 59 38 304 285 285 239 238 171
324 327 329 334 337 344 345 322 315 293 284 303 285 271 275 274 256 253 261 261 263 304 277 250 242 235 241 239 235 219 227 234 209 233 235 273 286 151 279 272 141 16 316 85
322 322 323 327 328 334 342 305 281 279 298 18 333 287 287 288 280 269 250 246 263 255 254 232 241 238 222 177 174 203 195 231 221 198 246 252 60 106 46 292 256 94 53 305
317 319 319 319 322 325 337 295 295 277 278 279 288 270 309 288 280 280 281 272 252 224 234 236 234 239 220 241 213 179 188 205 216 211 233 255 101 137 286 247 44 360 330 318
308 317 320 319 311 292 324 293 298 268 272 280 278 271 269 268 255 260 354 269 206 233 234 240 243 248 223 242 246 226 224 217 219 235 235 242 144 144 247 16 319 321 314 310
303 306 315 322 288 286 296 276 270 274 268 264 281 272 263 254 251 275 268 285 312 319 254 234 235 215 214 239 242 195 243 245 242 222 34 95 115 331 311 304 302 307 310 311
312 308 303 306 309 283 273 276 287 302 288 295 261 275 272 247 236 235 243 237 261 254 308 300 300 244 253 218 242 219 180 185 240 225 201 239 243 266 279 283 297 304 307 311
317 295 304 294 308 289 248 286 289 280 281 277 301 233 291 261 236 242 226 241 284 278 266 261 268 255 286 253 43 272 76 185 241 260 265 265 240 194 339 305 305 313 318 318
304 295 293 285 283 294 303 287 276 259 250 300 302 299 263 232 236 222 212 218 217 270 235 228 241 264 243 260 295 260 225 250 259 272 57 276 258 343 325 317 322 326 327 329
290 288 296 286 278 298 305 272 284 272 218 260 286 316 235 254 275 226 207 200 213 226 237 236 216 121 258 269 258 253 253 235 234 179 142 304 306 312 321 323 324 330 337 341
286 292 296 284 271 286 252 279 299 293 309 267 281 252 150 273 220 172 174 189 207 221 251 239 202 173 198 257 261 131 219 192 183 217 292 274 119 330 317 298 317 332 332 337
292 293 295 286 275 274 277 256 268 271 256 260 276 285 235 320 273 182 172 175 196 217 263 234 221 153 223 246 231 207 195 179 201 234 246 293 310 315 316 305 310 316 320 329
298 304 307 291 259 241 236 248 241 215 234 283 260 284 3 316 323 248 178 183 183 182 217 213 204 172 219 235 179 153 165 185 151 215 239 199 345 7 354 321 309 308 316 322
311 317 282 251 233 274 326 247 198 198 214 238 261 272 289 349 272 119 103 266 161 186 207 141 216 237 249 251 221 214 240 221 206 214 158 105 40 8 358 347 331 318 313 317
329 278 270 294 299 298 271 260 239 173 233 220 268 284 286 242 293 1 90 81 262 225 153 211 187 228 161 168 159 153 148 155 153 126 99 66 30 357 349 345 342 336 332 332
249 299 288 297 257 247 258 219 191 226 311 189 260 290 257 280 268 266 152 248 216 158 136 229 186 259 227 125 114 115 121 125 121 115 110 87 48 27 12 5 4 6 4 2
333 313 266 271 214 257 252 7 222 304 344 292 308 280 245 227 240 255 260 270 39 127 223 191 124 126 130 112 114 112 117 119 110 107 104 96 84 53 42 35 30 28 27 12
321 315 283 300 23 27 0 341 347 321 317 319 319 268 235 241 237 244 267 216 126 217 186 102 120 116 116 113 117 120 111 108 109 114 111 110 104 68 50 42 39 37 28 10
323 302 299 9 342 302 360 339 318 309 304 309 278 231 264 221 277 282 286 239 206 335 117 112 104 105 111 116 124 126 118 116 113 110 113 116 108 82 52 42 36 33 24 16
309 286 288 347 288 15 1 336 338 345 330 300 189 191 225 184 300 255 274 288 59 32 80 86 91 96 109 123 132 131 127 128 123 118 114 118 102 83 66 35 28 24 22 15
299 30 317 315 310 328 341 324 341 344 345 12 4 23 42 289 290 299 60 31 67 72 65 61 57 70 126 151 154 152 145 142 143 135 133 124 107 71 27 10 18 21 17 10
Wind_Speed_850mb
59 65 68 72 76 76 67 25 11 25 24 11 3 5 5 8 8 9 10 11 15 15 5 10 8 8 4 4 3 2 7 8 17 29 36 26 33 38 27 14 18 17 19 13
58 63 66 67 66 64 60 31 16 16 20 7 2 5 7 7 9 8 6 11 10 7 9 10 11 7 6 6 2 3 11 13 15 13 9 12 17 25 26 17 9 40 26 12
58 62 64 63 57 51 41 14 8 7 15 11 10 12 11 12 6 13 12 10 10 12 15 10 7 12 12 2 6 6 4 17 22 24 17 2 8 13 15 21 15 27 31 10
57 60 61 57 51 43 25 10 6 5 9 1 19 12 9 18 12 8 8 13 23 19 15 16 16 12 12 13 7 7 8 17 19 24 27 27 30 29 26 31 30 30 28 28
56 57 55 50 45 38 13 14 12 9 26 17 15 7 10 12 7 9 10 19 4 15 22 18 8 13 11 10 9 10 7 14 15 27 23 24 34 34 34 36 35 35 32 32
52 50 46 43 40 32 11 13 11 9 11 11 12 9 5 4 9 13 5 7 14 18 8 7 11 14 10 10 14 15 15 12 12 19 6 18 23 26 33 35 32 23 27 12
45 41 40 37 33 26 15 11 9 13 15 9 15 11 15 20 22 22 18 18 18 6 12 14 16 20 23 23 23 21 17 17 17 11 12 10 10 5 5 10 7 16 7 2
39 36 34 31 28 20 12 11 7 10 14 17 25 23 19 19 20 27 30 25 14 16 13 16 17 21 21 29 24 21 26 18 7 7 16 24 19 8 5 7 8 4 10 4
34 32 31 27 25 20 12 13 9 10 17 3 11 17 15 21 21 18 25 16 15 13 18 19 28 19 18 13 17 9 17 20 14 10 8 9 8 9 3 6 15 12 6 6
32 28 26 25 20 18 16 14 13 10 24 27 15 17 14 7 13 14 16 13 15 18 19 22 24 25 14 20 23 16 18 20 23 21 14 13 12 7 2 15 5 5 13 23
27 25 24 21 13 15 17 15 16 12 20 42 42 39 40 36 26 18 4 12 22 16 23 21 15 16 15 22 20 12 20 13 15 18 13 13 11 12 12 12 14 22 26 31
23 23 24 20 18 24 21 16 11 16 21 35 39 43 49 44 36 28 19 20 10 10 9 8 9 10 8 19 15 11 15 11 6 9 4 11 10 5 7 16 20 26 30 33
26 21 22 19 22 19 19 21 23 21 23 42 29 22 16 14 26 39 42 25 10 11 10 8 3 11 10 10 16 11 10 7 12 1 14 5 7 15 18 14 20 24 27 31
28 21 23 22 21 23 14 14 18 18 14 13 12 12 15 18 25 24 35 45 21 16 15 11 5 7 12 5 4 15 8 8 9 16 22 17 11 5 6 15 17 21 26 30
25 26 25 25 20 23 24 24 25 24 20 12 32 42 12 5 11 21 29 32 30 18 12 13 11 12 9 13 11 16 16 18 15 11 11 7 3 9 12 13 16 20 26 27
28 25 22 17 18 20 15 9 11 14 27 9 8 13 8 8 11 18 25 30 26 18 11 8 6 4 7 6 12 10 8 10 15 6 2 8 11 11 7 10 12 17 17 20
21 22 21 19 20 19 13 8 13 30 19 8 12 7 8 9 7 13 22 21 21 20 10 9 8 11 12 8 14 9 5 11 16 10 9 11 3 11 12 9 11 14 14 18
20 22 19 20 20 24 23 12 15 15 15 10 7 9 6 12 8 14 19 15 14 8 6 9 10 10 12 7 9 4 11 12 11 10 9 11 10 10 8 9 11 15 18 22
17 19 19 14 10 9 15 21 14 10 11 8 6 8 7 9 9 1 13 16 11 17 12 9 8 6 7 10 6 14 14 9 9 5 6 3 3 10 10 11 14 19 22 25
18 12 6 6 5 9 11 7 7 10 11 10 11 11 7 10 11 6 4 4 4 7 6 9 6 7 18 13 14 10 10 9 6 7 9 4 3 8 13 16 19 21 24 25
5 4 3 3 5 5 5 5 7 6 7 9 8 11 10 3 8 6 3 1 4 5 6 6 8 5 6 6 11 13 12 11 12 7 5 5 5 10 16 21 23 21 18 18
2 4 7 5 4 6 7 5 4 8 4 7 5 6 7 5 5 7 6 4 5 3 7 4 5 3 4 17 20 19 19 20 14 9 8 7 9 12 17 20 22 19 16 16
4 4 4 5 4 7 6 3 3 3 2 3 6 6 5 6 7 8 4 4 5 13 5 3 6 19 23 21 21 20 18 15 12 13 12 11 14 17 23 26 26 21 17 18
3 5 5 6 3 6 6 11 10 14 18 26 26 6 7 4 6 7 2 3 2 5 5 6 12 21 22 19 18 20 18 16 16 16 14 15 16 18 23 25 26 26 23 20
4 6 5 5 4 5 12 16 21 29 28 21 7 4 4 5 6 5 5 4 2 2 5 12 20 19 18 18 19 20 18 18 17 16 16 15 12 11 15 20 28 27 27 28
4 4 7 8 8 12 15 25 26 24 27 2 5 4 5 5 5 5 0 6 7 5 12 19 14 14 15 16 18 17 16 17 16 14 14 13 10 8 8 15 23 22 28 34
5 2 5 11 13 14 17 26 25 26 23 12 6 3 8 5 5 2 5 5 6 16 16 12 8 6 6 11 15 16 14 13 11 11 10 8 4 4 6 10 16 21 24 30
Wind_Direction_850mb
348 350 351 351 350 351 359 359 319 312 347 271 285 276 352 347 272 233 252 272 271 267 266 264 254 251 357 27 307 2 186 202 242 250 243 288 303 295 306 289 250 265 281 296
345 346 348 351 352 355 356 335 298 326 5 312 299 338 273 262 267 251 245 239 242 225 237 251 244 203 125 81 35 168 156 210 268 181 197 206 222 235 254 267 309 277 264 277
340 342 344 347 351 354 355 335 307 342 36 55 342 335 280 261 235 261 262 267 232 223 232 214 233 215 176 238 134 94 172 251 263 279 310 24 243 215 205 215 240 253 267 235
336 338 340 343 349 355 4 348 36 337 311 165 326 283 285 276 268 235 253 223 236 232 238 229 223 211 189 199 161 206 243 254 262 272 285 280 269 269 253 237 253 263 278 287
332 333 336 342 348 355 9 341 334 311 285 290 277 211 245 275 286 263 218 259 251 240 242 238 214 212 217 257 160 210 203 265 286 274 267 271 271 266 261 257 256 258 268 271
330 332 336 341 346 358 6 341 315 297 279 271 268 274 294 271 304 230 248 328 277 238 248 290 289 273 277 267 249 221 235 261 259 275 346 291 268 258 247 252 250 257 256 293
326 330 333 338 345 354 360 329 320 283 284 269 292 288 276 275 273 270 269 292 270 15 318 276 254 251 248 239 238 242 241 245 257 276 290 256 59 38 304 285 285 239 238 171
324 327 329 334 337 344 345 322 315 293 284 303 285 271 275 274 256 253 261 261 263 304 277 250 242 235 241 239 235 219 227 234 209 233 235 273 286 151 279 272 141 16 316 85
322 322 323 327 328 334 342 305 281 279 298 18 333 287 287 288 280 269 250 246 263 255 254 232 241 238 222 177 174 203 195 231 221 198 246 252 60 106 46 292 256 94 53 305
317 319 319 319 322 325 337 295 295 277 278 279 288 270 309 288 280 280 281 272 252 224 234 236 234 239 220 241 213 179 188 205 216 211 233 255 101 137 286 247 44 360 330 318
308 317 320 319 311 292 324 293 298 268 272 280 278 271 269 268 255 260 354 269 206 233 234 240 243 248 223 242 246 226 224 217 219 235 235 242 144 144 247 16 319 321 314 310
303 306 315 322 288 286 296 276 270 274 268 264 281 272 263 254 251 275 268 285 312 319 254 234 235 215 214 239 242 195 243 245 242 222 34 95 115 331 311 304 302 307 310 311
312 308 303 306 309 283 273 276 287 302 288 295 261 275 272 247 236 235 243 237 261 254 308 300 300 244 253 218 242 219 180 185 240 225 201 239 243 266 279 283 297 304 307 311
317 295 304 294 308 289 248 286 289 280 281 277 301 233 291 261 236 242 226 241 284 278 266 261 268 255 286 253 43 272 76 185 241 260 265 265 240 194 339 305 305 313 318 318
304 295 293 285 283 294 303 287 276 259 250 300 302 299 263 232 236 222 212 218 217 270 235 228 241 264 243 260 295 260 225 250 259 272 57 276 258 343 325 317 322 326 327 329
290 288 296 286 278 298 305 272 284 272 218 260 286 316 235 254 275 226 207 200 213 226 237 236 216 121 258 269 258 253 253 235 234 179 142 304 306 312 321 323 324 330 337 341
286 292 296 284 271 286 252 279 299 293 309 267 281 252 150 273 220 172 174 189 207 221 251 239 202 173 198 257 261 131 219 192 183 217 292 274 119 330 317 298 317 332 332 337
292 293 295 286 275 274 277 256 268 271 256 260 276 285 235 320 273 182 172 175 196 217 263 234 221 153 223 246 231 207 195 179 201 234 246 293 310 315 316 305 310 316 320 329
298 304 307 291 259 241 236 248 241 215 234 283 260 284 3 316 323 248 178 183 183 182 217 213 204 172 219 235 179 153 165 185 151 215 239 199 345 7 354 321 309 308 316 322
311 317 282 251 233 274 326 247 198 198 214 238 261 272 289 349 272 119 103 266 161 186 207 141 216 237 249 251 221 214 240 221 206 214 158 105 40 8 358 347 331 318 313 317
329 278 270 294 299 298 271 260 239 173 233 220 268 284 286 242 293 1 90 81 262 225 153 211 187 228 161 168 159 153 148 155 153 126 99 66 30 357 349 345 342 336 332 332
249 299 288 297 257 247 258 219 191 226 311 189 260 290 257 280 268 266 152 248 216 158 136 229 186 259 227 125 114 115 121 125 121 115 110 87 48 27 12 5 4 6 4 2
333 313 266 271 214 257 252 7 222 304 344 292 308 280 245 227 240 255 260 270 39 127 223 191 124 126 130 112 114 112 117 119 110 107 104 96 84 53 42 35 30 28 27 12
321 315 283 300 23 27 0 341 347 321 317 319 319 268 235 241 237 244 267 216 126 217 186 102 120 116 116 113 117 120 111 108 109 114 111 110 104 68 50 42 39 37 28 10
323 302 299 9 342 302 360 339 318 309 304 309 278 231 264 221 277 282 286 239 206 335 117 112 104 105 111 116 124 126 118 116 113 110 113 116 108 82 52 42 36 33 24 16
309 286 288 347 288 15 1 336 338 345 330 300 189 191 225 184 300 255 274 288 59 32 80 86 91 96 109 123 132 131 127 128 123 118 114 118 102 83 66 35 28 24 22 15
299 30 317 315 310 328 341 324 341 344 345 12 4 23 42 289 290 299 60 31 67 72 65 61 57 70 126 151 154 152 145 142 143 135 133 124 107 71 27 10 18 21 17 10